Startpagina
METAR-TAF:

METAR-TAF

Vliegvelden :

Productieplatform

Awg-1, Nederland

breedte: 53-29-30N, lengte: 5-56-30E, hoogte: 33 m

Actueel weer

Dit bericht is 28 minuten geleden gemaakt, om 14:55 UTC
Wind 4 kt uit het zuidoosten, variërend tussen het noordoosten en het zuiden
Temperatuur 1°C
Vochtigheid 75%
Druk 1019 hPa

METAR: EHMA 201455Z AUTO 13004KT 050V170 //// // NSC 01/M03 Q1019 RE// W///H///

Tijdstip: 16:23 (15:23 UTC)


TAF: ontbreekt

Waarnemingen en weersverwachtingen van meer dan 4000 vliegvelden (METAR en TAF).

De beschikbare stations zijn de gele en rode punten op de kaart.

Ga met uw muis naar het station om de naam te zien.

Klik dan om waarnemingen en weersverwachtingen te zien.

kaart wijzigen: klik op de groene knoppen met een zwart kruis om in te zoomen, op de groene knop met een streepje om uit te zoomen of op de groene pijlen voor aangrenzende kaarten.


METAR-TAF: